• Join FlightAware (Why Join?)
  • Login
  • US Flag 
05:56AM EDT


 

Airport Tracker/Info


-or-


 

Live Flight TrackerFlight Track Log ✈ EJA729 ✈ 21-Jun-2013 ✈ KGSO - KMYR

Flight Track Log - Related Links

Times and Time Zones

All times are in EDT time to prevent confusion due to time zone crossing. See the EJA729 flight status page for this flight to view local times or setup timezone preferences in your user account.

Time Position Orientation Groundspeed Altitude Reporting Facility
EDT Latitude Longitude Course Direction KTS MPH feet Rate Location/Type
11:52AM 36.0197 -79.8361 223° Southwest 399 459 12,000  Level Atlanta Center
11:53AM 35.9433 -79.9247 223° Southwest 382 440 12,000  Level Atlanta Center
11:54AM 35.8481 -79.9450 190° South 366 421 12,000 420 Level Atlanta Center
11:55AM 35.7483 -79.9525 183° South 366 421 12,900 2,340 Climbing Atlanta Center
11:56AM 35.6422 -79.9656 186° South 374 430 16,700 3,000 Climbing Atlanta Center
11:57AM 35.5772 -79.9717 184° South 386 444 18,200 2,400 Climbing Washington Center
11:58AM 35.4667 -79.9733 181° South 392 451 20,900 2,340 Climbing Washington Center
11:59AM 35.3867 -79.8747 135° Southeast 356 410 23,000 1,020 Climbing Washington Center
12:00PM 35.3097 -79.7483 127° Southeast 394 453 23,000  Level Washington Center
12:01PM 35.2036 -79.6769 151° Southeast 421 484 23,000  Level Washington Center
12:02PM 35.0889 -79.6178 157° South 433 498 23,000 -840 Level Washington Center
12:03PM 34.9781 -79.5642 158° South 441 507 21,400 -1,500 Descending Washington Center
12:05PM 34.7450 -79.4489 158° South 400 460 18,500 -1,260 Descending Jacksonville Center
12:06PM 34.6433 -79.4000 158° South 395 455 17,600 -1,080 Descending Jacksonville Center
12:07PM 34.5417 -79.3461 156° South 395 455 16,400 -1,260 Descending Jacksonville Center
12:08PM 34.4425 -79.3025 160° South 395 455 15,100 -1,320 Descending Jacksonville Center
12:09PM 34.3411 -79.2536 158° South 395 455 13,900 -1,500 Descending Jacksonville Center
12:10PM 34.2478 -79.2075 158° South 390 449 12,100 -1,800 Descending Jacksonville Center
12:11PM 34.1631 -79.1658 158° South 366 421 10,300 -1,860 Descending Jacksonville Center
12:12PM 34.0892 -79.1289 158° South 318 366 8,500 -1,920 Descending Jacksonville Center
12:13PM 34.0172 -79.0944 158° South 293 337 6,500 -2,040 Descending Jacksonville Center
12:14PM 33.9472 -79.0625 159° South 279 321 4,500 -1,260 Descending Jacksonville Center
12:15PM 33.8817 -79.0303 158° South 267 307 4,000 -900 Descending Jacksonville Center
12:16PM 33.8139 -79.0008 160° South 262 302 2,800 -1,200 Descending Jacksonville Center
12:17PM 33.7483 -78.9736 161° South 257 296 1,700 -660 Descending Jacksonville Center
12:18PM 33.6939 -78.9636 171° South 252 290 1,500 -240 Descending Jacksonville Center
12:20PM 33.6797 -78.9283 162° South  Level Estimated
12:27PM 33.6797 -78.9283 162° South  Level Estimated
12:28PM 33.6797 -78.9283 162° South  Level Estimated